Location: Brno
(49.2000°N, 16.6330°E)
Time: 02:10:00
(UTC+02:00)

Transit 2A Rocket - Visible Passes

Search period start: 29 July 2021 00:00
Search period end: 08 August 2021 00:00
Orbit: 589 x 913 km, 66.7° (Epoch: 28 July)

Date Brightness Start Highest point End Pass type
(mag) Time Alt. Az. Time Alt. Az. Time Alt. Az.
29 Jul 6.4 01:40:21 10° WNW 01:44:43 24° WSW 01:44:52 24° WSW visible
29 Jul 7.3 21:32:35 10° NNW 21:35:55 17° NNE 21:39:26 10° ENE visible
29 Jul 5.8 23:14:31 10° NNW 23:19:44 49° NE 23:23:09 23° ESE visible
30 Jul 5.8 00:57:15 10° NW 01:02:18 38° WSW 01:03:00 36° SW visible
30 Jul 6.3 22:32:00 10° NNW 22:36:53 34° NE 22:41:19 14° ESE visible
31 Jul 5.3 00:14:23 10° NW 00:19:47 59° WSW 00:21:11 46° S visible
31 Jul 7.4 02:00:21 10° W 02:01:04 10° W 02:01:04 10° W visible
31 Jul 6.7 21:49:31 10° NNW 21:53:56 25° NE 21:58:37 10° E visible
31 Jul 5.1 23:31:41 10° NW 23:37:11 89° SW 23:39:25 39° SSE visible
01 Aug 6.9 01:15:30 10° WNW 01:19:10 18° WSW 01:19:18 18° WSW visible
01 Aug 7.0 21:07:03 10° NNW 21:10:53 20° NNE 21:14:55 10° ENE visible
01 Aug 5.4 22:49:04 10° NNW 22:54:28 62° NE 22:57:42 26° ESE visible
02 Aug 6.3 00:32:06 10° NW 00:36:49 28° WSW 00:37:34 28° SW visible
02 Aug 5.9 22:06:31 10° NNW 22:11:41 43° NE 22:16:01 16° ESE visible
02 Aug 5.8 23:49:07 10° NW 23:54:21 44° WSW 23:55:53 36° SSW visible
03 Aug 6.4 21:24:00 10° NNW 21:28:47 31° NE 21:33:52 10° E visible
03 Aug 5.3 23:06:19 10° NW 23:11:48 69° WSW 23:14:15 35° SSE visible
04 Aug 7.3 00:51:04 10° WNW 00:53:35 13° WSW 00:54:08 13° WSW visible
04 Aug 5.2 22:23:39 10° NW 22:29:10 80° NE 22:32:39 26° SE visible
05 Aug 6.8 00:07:08 10° WNW 00:11:18 21° WSW 00:12:33 20° SW visible
05 Aug 5.6 21:41:03 10° NNW 21:46:25 55° NE 21:51:06 16° ESE visible
05 Aug 6.3 23:23:56 10° NW 23:28:54 33° WSW 23:31:00 26° SSW visible
06 Aug 6.1 20:58:32 10° NNW 21:03:36 38° NE 21:09:01 10° ESE visible
06 Aug 5.7 22:41:00 10° NW 22:46:25 52° WSW 22:49:30 26° S visible
07 Aug 5.3 21:58:16 10° NW 22:03:49 80° SW 22:08:02 20° SSE visible
07 Aug 7.3 23:42:24 10° WNW 23:45:43 16° WSW 23:47:56 13° SW visible
